Location: Brabourne
(51.1333°N, 1.0000°E)
Time: 07:22:55
(UTC+00:00)

FALCON 9 DEB - Pass Details

Date: 20 June 2021
Orbit: 358 x 373 km, 53.0° (Epoch: 02 August)

Event Time Altitude Azimuth Distance (km) Brightness Sun altitude
Rises 00:54:49 0° 283° (WNW) 2,254 6.8 -14.4°
Reaches altitude 10° 00:56:53 10° 286° (WNW) 1,399 5.7 -14.3°
Maximum altitude 01:00:00 67° 10° (N) 416 3.2 -14.2°
Drops below altitude 10° 01:03:06 10° 94° (E) 1,389 5.8 -14.0°
Sets 01:05:08 0° 97° (E) 2,236 6.9 -14.0°
